VLG452 LEPA-LECO

Flight info

Callsign VLG452
Flight time 1h 34m
Altitude 35000
Route EPAMA N733 VLC/N0352F130 N733 CJN/N0455F350 N733 DESAT/N0456F360 DCT LOMDA
Aircraft A320/M-SDE3FGHIRWY/LB1

Departure

Time 2026-05-04 15:38
Airport Palma de Mallorca Airport (LEPA)

Arrival

Time 2026-05-04 17:12
Airport A Coruña Airport (LECO)
Time Latitude Longitude Altitude Speed Heading
2026-05-04 15:03 39.54470 2.73133 39 ft 0 kts 344°
2026-05-04 15:21 39.54470 2.73134 38 ft 0 kts 344°
2026-05-04 15:27 39.54465 2.73135 38 ft 4 kts 344°
2026-05-04 15:28 39.54415 2.73141 36 ft 4 kts 33°
2026-05-04 15:28 39.54396 2.73117 35 ft 4 kts 56°
2026-05-04 15:28 39.54385 2.73096 38 ft 0 kts 58°
2026-05-04 15:30 39.54387 2.73100 38 ft 2 kts 58°
2026-05-04 15:31 39.54421 2.73169 35 ft 7 kts 58°
2026-05-04 15:31 39.54452 2.73234 38 ft 10 kts 58°
2026-05-04 15:32 39.54600 2.73544 36 ft 17 kts 56°
2026-05-04 15:32 39.54731 2.73832 38 ft 20 kts 61°
2026-05-04 15:33 39.54911 2.73959 36 ft 15 kts 353°
2026-05-04 15:34 39.55155 2.73866 38 ft 16 kts 328°
2026-05-04 15:34 39.55253 2.73788 38 ft 18 kts 328°
2026-05-04 15:34 39.55491 2.73599 37 ft 22 kts 329°
2026-05-04 15:35 39.55712 2.73619 38 ft 20 kts 58°
2026-05-04 15:35 39.55789 2.73783 38 ft 22 kts 58°
2026-05-04 15:35 39.55871 2.73960 37 ft 24 kts 59°
2026-05-04 15:36 39.56033 2.74265 38 ft 17 kts 32°
2026-05-04 15:36 39.56139 2.74338 37 ft 17 kts 27°
2026-05-04 15:36 39.56232 2.74306 38 ft 13 kts 293°
2026-05-04 15:37 39.56207 2.74222 38 ft 11 kts 238°
2026-05-04 15:37 39.56113 2.74026 38 ft 55 kts 238°
2026-05-04 15:37 39.55800 2.73366 38 ft 113 kts 238°
2026-05-04 15:37 39.55304 2.72321 95 ft 152 kts 236°
2026-05-04 15:38 39.54771 2.71175 768 ft 148 kts 236°
2026-05-04 15:38 39.54208 2.70048 1413 ft 149 kts 236°
2026-05-04 15:38 39.53630 2.68916 1930 ft 157 kts 235°
2026-05-04 15:38 39.52984 2.67650 2208 ft 179 kts 236°
2026-05-04 15:39 39.52268 2.66237 2535 ft 200 kts 236°
2026-05-04 15:39 39.51494 2.64706 3236 ft 204 kts 236°
2026-05-04 15:39 39.49974 2.61505 4632 ft 222 kts 250°
2026-05-04 15:40 39.49855 2.59406 5024 ft 249 kts 273°
2026-05-04 15:40 39.50048 2.57126 5750 ft 258 kts 274°
2026-05-04 15:40 39.50264 2.54802 6629 ft 261 kts 274°
2026-05-04 15:40 39.50487 2.52460 7477 ft 263 kts 273°
2026-05-04 15:41 39.50710 2.50082 8326 ft 267 kts 273°
2026-05-04 15:41 39.50929 2.47725 9159 ft 268 kts 273°
2026-05-04 15:41 39.51152 2.45287 10024 ft 271 kts 273°
2026-05-04 15:41 39.51375 2.42792 10413 ft 289 kts 273°
2026-05-04 15:42 39.51609 2.40136 10604 ft 312 kts 273°
2026-05-04 15:42 39.51865 2.37270 11009 ft 325 kts 274°
2026-05-04 15:42 39.52129 2.34340 11649 ft 330 kts 274°
2026-05-04 15:42 39.52398 2.31371 12351 ft 333 kts 274°
2026-05-04 15:43 39.52667 2.28374 13061 ft 337 kts 274°
2026-05-04 15:43 39.52935 2.25340 13772 ft 340 kts 274°
2026-05-04 15:43 39.53203 2.22292 14402 ft 342 kts 274°
2026-05-04 15:43 39.53476 2.19223 15044 ft 344 kts 274°
2026-05-04 15:44 39.53750 2.16130 15674 ft 346 kts 274°
2026-05-04 15:44 39.54021 2.13029 16305 ft 347 kts 274°
2026-05-04 15:44 39.54291 2.09911 16947 ft 349 kts 274°
2026-05-04 15:44 39.54562 2.06779 17593 ft 351 kts 274°
2026-05-04 15:45 39.54834 2.03617 18246 ft 353 kts 274°
2026-05-04 15:45 39.55107 2.00446 18830 ft 355 kts 273°
2026-05-04 15:45 39.55382 1.97249 19436 ft 357 kts 273°
2026-05-04 15:45 39.55657 1.94038 20048 ft 359 kts 272°
2026-05-04 15:46 39.55933 1.90802 20653 ft 361 kts 272°
2026-05-04 15:46 39.56207 1.87599 21230 ft 363 kts 272°
2026-05-04 15:46 39.56487 1.84333 21774 ft 365 kts 272°
2026-05-04 15:46 39.56764 1.81047 22301 ft 367 kts 271°
2026-05-04 15:47 39.57040 1.77732 22819 ft 370 kts 271°
2026-05-04 15:47 39.57316 1.74409 23334 ft 372 kts 271°
2026-05-04 15:47 39.57597 1.71059 23775 ft 374 kts 271°
2026-05-04 15:47 39.57881 1.67696 24178 ft 376 kts 271°
2026-05-04 15:48 39.58165 1.64314 24575 ft 379 kts 271°
2026-05-04 15:48 39.58446 1.60943 24962 ft 381 kts 271°
2026-05-04 15:48 39.59015 1.54081 25721 ft 385 kts 271°
2026-05-04 15:49 39.59297 1.50607 26090 ft 387 kts 271°
2026-05-04 15:49 39.59577 1.47122 26458 ft 389 kts 271°
2026-05-04 15:49 39.59859 1.43617 26827 ft 391 kts 271°
2026-05-04 15:49 39.60143 1.40092 27193 ft 393 kts 270°
2026-05-04 15:50 39.60232 1.36558 27552 ft 391 kts 262°
2026-05-04 15:50 39.60043 1.33080 27911 ft 392 kts 262°
2026-05-04 15:50 39.59845 1.29545 28274 ft 394 kts 262°
2026-05-04 15:50 39.59645 1.25988 28629 ft 396 kts 262°
2026-05-04 15:51 39.59447 1.22424 28968 ft 398 kts 262°
2026-05-04 15:51 39.59246 1.18826 29306 ft 400 kts 262°
2026-05-04 15:51 39.59042 1.15235 29787 ft 398 kts 261°
2026-05-04 15:51 39.58836 1.11660 30245 ft 397 kts 261°
2026-05-04 15:52 39.58629 1.08100 30671 ft 395 kts 261°
2026-05-04 15:52 39.58421 1.04546 31107 ft 394 kts 261°
2026-05-04 15:52 39.58214 1.01007 31542 ft 392 kts 261°
2026-05-04 15:52 39.58009 0.97490 31973 ft 390 kts 261°
2026-05-04 15:53 39.57807 0.94021 32402 ft 389 kts 261°
2026-05-04 15:53 39.57602 0.90531 32837 ft 388 kts 261°
2026-05-04 15:53 39.57397 0.87050 33284 ft 386 kts 261°
2026-05-04 15:53 39.57192 0.83581 33729 ft 385 kts 261°
2026-05-04 15:54 39.56986 0.80122 34135 ft 384 kts 261°
2026-05-04 15:54 39.56779 0.76674 34495 ft 383 kts 261°
2026-05-04 15:54 39.56574 0.73281 34811 ft 383 kts 261°
2026-05-04 15:54 39.56366 0.69837 34896 ft 385 kts 261°
2026-05-04 15:55 39.55938 0.62865 34905 ft 389 kts 261°
2026-05-04 15:55 39.55505 0.55905 34907 ft 389 kts 261°
2026-05-04 15:56 39.55072 0.48912 34903 ft 389 kts 261°
2026-05-04 15:56 39.54632 0.41912 34902 ft 389 kts 261°
2026-05-04 15:57 39.54185 0.34908 34907 ft 389 kts 261°
2026-05-04 15:57 39.53731 0.27907 34914 ft 390 kts 261°
2026-05-04 15:58 39.53279 0.20945 34915 ft 390 kts 261°
2026-05-04 15:58 39.52825 0.13948 34915 ft 390 kts 261°
2026-05-04 15:59 39.52366 0.06941 34921 ft 390 kts 261°
2026-05-04 15:59 39.51905 -0.00055 34917 ft 389 kts 261°
2026-05-04 16:00 39.51513 -0.05864 34928 ft 389 kts 261°
2026-05-04 16:00 39.51038 -0.12853 34919 ft 389 kts 261°
2026-05-04 16:01 39.50570 -0.19639 34908 ft 389 kts 261°
2026-05-04 16:01 39.50081 -0.26613 34899 ft 388 kts 261°
2026-05-04 16:02 39.49598 -0.33571 34898 ft 388 kts 261°
2026-05-04 16:03 39.48919 -0.43991 34893 ft 390 kts 266°
2026-05-04 16:03 39.49912 -0.50979 34896 ft 404 kts 286°
2026-05-04 16:04 39.52629 -0.57479 34898 ft 412 kts 292°
2026-05-04 16:04 39.56910 -0.67156 34924 ft 413 kts 292°
2026-05-04 16:05 39.59765 -0.73636 34925 ft 414 kts 292°
2026-05-04 16:06 39.64029 -0.83359 34946 ft 415 kts 292°
2026-05-04 16:07 39.69745 -0.96414 34955 ft 416 kts 292°
2026-05-04 16:08 39.75437 -1.09479 34959 ft 416 kts 292°
2026-05-04 16:09 39.82582 -1.25877 34986 ft 417 kts 293°
2026-05-04 16:10 39.88251 -1.38994 34988 ft 417 kts 293°
2026-05-04 16:11 39.93924 -1.52179 34995 ft 417 kts 293°
2026-05-04 16:12 40.02398 -1.71960 35009 ft 417 kts 293°
2026-05-04 16:13 40.08021 -1.85165 35011 ft 417 kts 293°
2026-05-04 16:14 40.13662 -1.98444 35007 ft 418 kts 293°
2026-05-04 16:16 40.20713 -2.15031 34995 ft 418 kts 293°
2026-05-04 16:17 40.27738 -2.31724 34983 ft 419 kts 293°
2026-05-04 16:18 40.33317 -2.45135 34972 ft 419 kts 293°
2026-05-04 16:19 40.40200 -2.61938 34968 ft 419 kts 292°
2026-05-04 16:20 40.46797 -2.78936 34968 ft 418 kts 292°
2026-05-04 16:22 40.53450 -2.95975 34967 ft 418 kts 292°
2026-05-04 16:23 40.61351 -3.16375 34966 ft 418 kts 292°
2026-05-04 16:25 40.69228 -3.36855 34968 ft 418 kts 292°
2026-05-04 16:26 40.78371 -3.60800 34991 ft 418 kts 291°
2026-05-04 16:28 40.84891 -3.77960 34990 ft 418 kts 291°
2026-05-04 16:29 40.93943 -4.02021 34995 ft 418 kts 291°
2026-05-04 16:31 41.00391 -4.19261 34994 ft 417 kts 291°
2026-05-04 16:32 41.08064 -4.39907 34991 ft 416 kts 291°
2026-05-04 16:33 41.13152 -4.53703 34984 ft 416 kts 291°
2026-05-04 16:34 41.16975 -4.64069 34985 ft 416 kts 291°
2026-05-04 16:35 41.24556 -4.84777 34979 ft 416 kts 290°
2026-05-04 16:36 41.28323 -4.95135 34982 ft 416 kts 290°
2026-05-04 16:37 41.32094 -5.05559 34981 ft 417 kts 290°
2026-05-04 16:38 41.37118 -5.19470 34978 ft 417 kts 290°
2026-05-04 16:39 41.43365 -5.36864 34975 ft 417 kts 290°
2026-05-04 16:40 41.48340 -5.50790 34970 ft 417 kts 290°
2026-05-04 16:41 41.55084 -5.67916 34974 ft 423 kts 299°
2026-05-04 16:43 41.63532 -5.84030 34978 ft 423 kts 298°
2026-05-04 16:43 41.68550 -5.93691 34977 ft 423 kts 298°
2026-05-04 16:45 41.78621 -6.13136 34975 ft 423 kts 298°
2026-05-04 16:46 41.84014 -6.22580 34976 ft 434 kts 311°
2026-05-04 16:46 41.88803 -6.27640 34975 ft 439 kts 316°
2026-05-04 16:47 41.98467 -6.37670 34970 ft 440 kts 315°
2026-05-04 16:48 42.07363 -6.46936 34978 ft 442 kts 316°
2026-05-04 16:49 42.17099 -6.57125 35001 ft 443 kts 315°
2026-05-04 16:50 42.26809 -6.67310 35017 ft 444 kts 316°
2026-05-04 16:51 42.34125 -6.75020 35024 ft 444 kts 316°
2026-05-04 16:52 42.43873 -6.85348 34913 ft 445 kts 316°
2026-05-04 16:52 42.46309 -6.87934 34655 ft 445 kts 316°
2026-05-04 16:53 42.51200 -6.93132 32843 ft 454 kts 315°
2026-05-04 16:53 42.58712 -7.01113 30237 ft 457 kts 315°
2026-05-04 16:54 42.61191 -7.03750 29609 ft 451 kts 315°
2026-05-04 16:55 42.70820 -7.14040 27160 ft 430 kts 316°
2026-05-04 16:55 42.75454 -7.19001 25992 ft 423 kts 316°
2026-05-04 16:56 42.80041 -7.23938 24829 ft 418 kts 316°
2026-05-04 16:56 42.86438 -7.31709 23083 ft 400 kts 301°
2026-05-04 16:57 42.88087 -7.34749 22551 ft 396 kts 301°
2026-05-04 16:57 42.91352 -7.40738 21526 ft 390 kts 301°
2026-05-04 16:58 42.96168 -7.49581 20017 ft 384 kts 302°
2026-05-04 16:58 42.97754 -7.52504 19507 ft 382 kts 302°
2026-05-04 16:59 43.00904 -7.58312 18440 ft 379 kts 302°
2026-05-04 17:00 43.07065 -7.69691 16198 ft 366 kts 302°
2026-05-04 17:00 43.11543 -7.78023 14550 ft 358 kts 302°
2026-05-04 17:01 43.14479 -7.83490 13397 ft 353 kts 303°
2026-05-04 17:01 43.17361 -7.88850 12316 ft 345 kts 303°
2026-05-04 17:02 43.20178 -7.94109 11249 ft 339 kts 303°
2026-05-04 17:02 43.22922 -7.99249 10507 ft 326 kts 303°
2026-05-04 17:03 43.24235 -8.01700 10375 ft 313 kts 303°
2026-05-04 17:03 43.25501 -8.04067 10255 ft 302 kts 303°
2026-05-04 17:03 43.27898 -8.08572 9889 ft 285 kts 303°
2026-05-04 17:04 43.30229 -8.12945 9204 ft 283 kts 306°
2026-05-04 17:04 43.33723 -8.14972 8308 ft 289 kts
2026-05-04 17:05 43.37463 -8.12978 7142 ft 287 kts 16°
2026-05-04 17:05 43.41281 -8.12443 6156 ft 273 kts 350°
2026-05-04 17:06 43.44874 -8.13840 5080 ft 265 kts 334°
2026-05-04 17:06 43.46492 -8.14990 4627 ft 258 kts 327°
2026-05-04 17:07 43.49090 -8.17809 4482 ft 221 kts 312°
2026-05-04 17:07 43.49642 -8.18942 4433 ft 211 kts 289°
2026-05-04 17:07 43.49477 -8.21451 4336 ft 198 kts 239°
2026-05-04 17:07 43.48467 -8.22700 4275 ft 197 kts 214°
2026-05-04 17:08 43.47284 -8.23667 4127 ft 199 kts 213°
2026-05-04 17:08 43.44929 -8.25600 3594 ft 199 kts 214°
2026-05-04 17:08 43.43741 -8.26580 3329 ft 199 kts 214°
2026-05-04 17:09 43.42546 -8.27566 3047 ft 200 kts 214°
2026-05-04 17:09 43.41359 -8.28545 2827 ft 196 kts 213°
2026-05-04 17:09 43.40196 -8.29504 2521 ft 194 kts 214°
2026-05-04 17:10 43.37935 -8.31366 1995 ft 181 kts 214°
2026-05-04 17:10 43.35092 -8.33704 1340 ft 144 kts 215°
2026-05-04 17:11 43.34234 -8.34406 1139 ft 142 kts 215°
2026-05-04 17:11 43.33391 -8.35088 915 ft 139 kts 215°
2026-05-04 17:11 43.31737 -8.36442 530 ft 139 kts 219°
2026-05-04 17:12 43.30917 -8.37123 380 ft 139 kts 220°
2026-05-04 17:12 43.29679 -8.38153 340 ft 45 kts 211°
2026-05-04 17:13 43.29197 -8.38594 339 ft 11 kts 326°
2026-05-04 17:14 43.29578 -8.38239 336 ft 30 kts 31°
2026-05-04 17:14 43.29758 -8.38090 338 ft 30 kts 30°
2026-05-04 17:14 43.29967 -8.38039 341 ft 12 kts 311°
2026-05-04 17:15 43.30053 -8.38074 341 ft 15 kts
2026-05-04 17:15 43.30151 -8.38064 336 ft 3 kts 325°
2026-05-04 17:16 43.30170 -8.38082 340 ft 3 kts 326°
2026-05-04 17:16 43.30174 -8.38085 340 ft 0 kts 326°